Powrót do katalogu

COSMOS 2251 DEB

AktywnyLEO
NORAD 33900·DEBRIS·🇷🇺 Russia

Wystrzelony Jun 16, 1993 z Plesetsk Cosmodrome

Loading…

Następne Przeloty (najbliższe 24 godziny)

TLE

ŚwieżeSource: Space-Track

Epoka: Sep 14, 2026, 12:56 UTC

1 33900U 93036DD  26257.53949398  .00001234  00000-0  26331-3 0  9996
2 33900  74.0180 193.9159 0049023 275.2150 200.9193 14.59303418930581

Śledź COSMOS 2251 DEB w czasie rzeczywistym z AllMySat

Download on the App Store